Weather History for KHTS - April, 2014

Change the Weather History Date:

Sunday, April 27, 2014

  Actual Average Record
Temperature  
Mean Temperature 64 °F 60 °F  
Max Temperature 79 °F 71 °F 92 °F (1915)
Min Temperature 48 °F 48 °F 31 °F (1926)
Degree Days  
Heating Degree Days 1 7  
Month to date heating degree days 199 273  
Since 1 July heating degree days 4700 4370  
Cooling Degree Days 0 1  
Month to date cooling degree days 14 26  
Year to date cooling degree days 14 31  
Growing Degree Days 14 (Base 50)    
Moisture  
Dew Point 42 °F    
Average Humidity 51    
Maximum Humidity 71    
Minimum Humidity 30    
Precipitation  
Precipitation 0.00 in 0.13 in 1.58 in (1912)
Month to date precipitation 2.20 3.08  
Year to date precipitation 12.67 13.02  
Snow  
Snow 0.00 in - - ()
Month to date snowfall T  
Since 1 September snowfall 36.8  
Snow Depth 0.00 in    
Sea Level Pressure  
Sea Level Pressure 29.95 in    
Wind  
Wind Speed 8 mph (NE)    
Max Wind Speed 13 mph    
Max Gust Speed 16 mph    
Visibility 10 miles    
Events      
T = Trace of Precipitation, MM = Missing Value Source: NWS Daily Summary

Daily Weather History Graph

Daily Weather History Graph

Search for Another Location

Airport or City:

Trip Planner

Search our weather history database for the weather conditions in past years. The results will help you decide how hot, cold, wet, or windy it might be!

Date:

Astronomy

Apr. 27, 2014 Rise Set
Actual Time 6:38 AM EDT 8:18 PM EDT
Civil Twilight 6:10 AM EDT 8:46 PM EDT
Nautical Twilight 5:36 AM EDT 9:20 PM EDT
Astronomical Twilight 5:00 AM EDT 9:56 PM EDT
Moon 5:36 AM EDT (4/27) 6:51 PM EDT (4/27)
Length of Visible Light 14h 36m
Length of Day
13h 39m
Waning Crescent, 3% of the Moon is Illuminated
Apr 27
Waning Crescent
Apr 29
New
May 6
First Quarter
May 14
Full
May 21
Last Quarter

Hourly Weather History & Observations

Time (EDT) Temp. Dew Point Humidity Pressure Visibility Wind Dir Wind Speed Gust Speed Precip Events Conditions
12:51 AM 60.8 °F 42.8 °F 52% 29.95 in 10.0 mi ENE 6.9 mph - N/A   Clear
1:51 AM 59.0 °F 44.1 °F 58% 29.95 in 10.0 mi NE 8.1 mph - N/A   Clear
2:51 AM 55.9 °F 43.0 °F 62% 29.94 in 10.0 mi NE 5.8 mph - N/A   Clear
3:51 AM 53.6 °F 42.8 °F 67% 29.97 in 10.0 mi NE 9.2 mph - N/A   Clear
4:51 AM 52.0 °F 39.9 °F 63% 29.97 in 10.0 mi NE 8.1 mph - N/A   Clear
5:51 AM 50.0 °F 39.0 °F 66% 29.97 in 10.0 mi ENE 8.1 mph - N/A   Clear
6:51 AM 48.2 °F 39.2 °F 71% 30.01 in 10.0 mi NE 5.8 mph - N/A   Clear
7:51 AM 50.0 °F 39.0 °F 66% 30.02 in 10.0 mi NE 5.8 mph - N/A   Clear
8:51 AM 53.6 °F 39.2 °F 58% 30.04 in 10.0 mi NE 8.1 mph - N/A   Clear
9:51 AM 57.0 °F 39.9 °F 53% 30.03 in 10.0 mi NE 9.2 mph - N/A   Clear
10:51 AM 62.1 °F 42.1 °F 48% 30.03 in 10.0 mi NNE 8.1 mph - N/A   Clear
11:51 AM 66.0 °F 44.1 °F 45% 30.02 in 10.0 mi Variable 5.8 mph - N/A   Clear
12:51 PM 69.1 °F 45.0 °F 42% 29.99 in 10.0 mi ENE 5.8 mph - N/A   Clear
1:51 PM 73.9 °F 46.0 °F 37% 29.94 in 10.0 mi NNE 8.1 mph - N/A   Clear
2:51 PM 75.9 °F 45.0 °F 33% 29.93 in 10.0 mi NNE 8.1 mph - N/A   Clear
3:51 PM 77.0 °F 44.1 °F 31% 29.90 in 10.0 mi ENE 9.2 mph - N/A   Clear
4:51 PM 79.0 °F 45.0 °F 30% 29.89 in 10.0 mi NNE 10.4 mph - N/A   Clear
5:51 PM 75.9 °F 44.1 °F 32% 29.89 in 10.0 mi NE 9.2 mph - N/A   Clear
6:51 PM 73.9 °F 43.0 °F 33% 29.87 in 10.0 mi NE 9.2 mph - N/A   Clear
7:51 PM 72.0 °F 41.0 °F 33% 29.88 in 10.0 mi ENE 9.2 mph - N/A   Clear
8:51 PM 69.1 °F 41.0 °F 36% 29.88 in 10.0 mi ENE 9.2 mph - N/A   Clear
9:51 PM 68.0 °F 39.9 °F 36% 29.89 in 10.0 mi ENE 9.2 mph - N/A   Clear
10:51 PM 66.2 °F 39.2 °F 37% 29.90 in 10.0 mi ENE 6.9 mph - N/A   Clear
11:51 PM 64.4 °F 39.2 °F 40% 29.89 in 10.0 mi ENE 6.9 mph - N/A   Clear